Location: Balaclava NSW 2575, Australia
(34.4510°S, 150.4953°E)
Time: 18:14:19
(UTC+10:00)

Vanguard 2 - Pass Details

Date: 15 June 2021
Orbit: 552 x 2937 km, 32.9° (Epoch: 24 July)

Event Time Altitude Azimuth Distance (km) Brightness Sun altitude
Rises 05:04:19 0° 332° (NNW) 3,645 10.9 -23.6°
Reaches altitude 10° 05:06:54 10° 344° (NNW) 2,967 10.5 -23.1°
Maximum altitude 05:13:14 29° 41° (NE) 2,460 10.6 -21.9°
Drops below altitude 10° 05:22:41 10° 95° (E) 4,548 12.5 -20.0°
Sets 05:27:45 0° 103° (ESE) 5,959 13.1 -19.0°
